Location: Kaseke
(18.0171°S, 31.0526°E)
Time: 12:11:48
(UTC+00:00)

YAOGAN 6 - Pass Details

Date: 14 July 2020
Orbit: 466 x 503 km, 97.0° (Epoch: 08 August)

Event Time Altitude Azimuth Distance (km) Brightness Sun altitude
Rises 03:58:30 0° 1° (N) 2,548 6.5 -7.3°
Reaches altitude 10° 04:00:37 10° 355° (N) 1,668 5.5 -6.8°
Maximum altitude 04:04:05 48° 280° (W) 643 2.8 -6.0°
Drops below altitude 10° 04:07:33 10° 204° (SSW) 1,667 4.9 -5.2°
Sets 04:09:40 0° 198° (SSW) 2,546 5.8 -4.8°
